OPS 4682 DEB, 38376

Orbit data source: Space-Track

OPS 4682 DEB, 38376 is space debris in LEO originally from a launch on Sat, 03 Apr 1965 UTC launched from the Air Force Western Test Range (AFWTR). Debris objects in space refer to the collection of defunct objects orbiting the Earth. Examples of debris include non-operational satellites, rocket bodies, and fragments generated from explosions, collisions, or faulty payload assembly.

Loading next visibility...
Identifier
38376, 1965-027CD
Orbit
LEO
Country
Flag of USUS
Related business
Manufacturer
Unknown
Mission
Spacecraft
Bus & Motor
Unknown
Mass
Unknown
Launch date (UTC)
1965-04-03 (61 years ago)
Launch vehicle
Unknown
Launch site
Air Force Western Test Range (AFWTR)
Object type
Payload
Rocket body
Debris
Shape & HBR
Unknown shape, 0.1 m
Radar Cross Section
Small (<0.1 m²)

Expand to show TLE details & history
Last TLE update: 1 day ago

TLE from 1 day ago
0 OPS 4682 DEB
1 38376U 65027CD  25292.45498881 -.00000011  00000-0 -63979-4 0  9996
2 38376  90.2436   5.4518 0029194  59.6144 300.7856 12.95764640630619
Epoch: 2025-10-19T10:55Z
TLE epoch observation values (Epoch: 2025-10-19T10:55:11.033Z)
Latitude
0.00001°
Longitude
173.48442°
Altitude
1,270.209 km
Speed
7.226 km/s
True Right ascension
00h 21m 48s
True Declination
0° 00' 00"
Sunlit
Object was in full shadow at epoch
Visualization orbit readout
Latitude
Unknown
Longitude
Unknown
Altitude
Unknown
Speed
Unknown
Apparent Right ascension
Unknown
Apparent Declination
Unknown
Sunlit
N/A
Visualization observer readout
Local Sidereal Time
11:40:51
Azimuth
Unknown
Elevation
Unknown
Doppler factor
Unknown
Orbital elements
Apogee altitude
1,298.205 km
Perigee altitude
1,253.514 km
Semi-major axis
7,653.996 km
Eccentricity
0.00292
Inclination
90.2436°
RAAN
5.4518°
Arg. of periapsis
59.6144°
True anomaly
300.49767°
Mean anomaly
300.7856°
Eccentric anomaly
300.64169°
Mean motion
3.24124 °/min
Orbital period
111.07 mins
BSTAR
-0.000063979
Loading maneuver chart data...
Computing Atmospheric mass density...
Loading historical data...
Loading historical data...
Loading historical data...
Loading historical data...
Loading historical data...
Loading historical data...
Loading historical data...

Documentation

Showing up to 5 results
|